Weather History for Delaware, OH

Change the Weather History Date:

Tuesday, August 20, 2013

  Actual Average Record
Temperature  
Mean Temperature 68 °F -  
Max Temperature 82 °F 82 °F 100 °F (1962)
Min Temperature 53 °F 58 °F 46 °F (2012)
Cooling Degree Days 2    
Growing Degree Days 18 (Base 50)    
Moisture  
Dew Point 58 °F    
Average Humidity 74    
Maximum Humidity 100    
Minimum Humidity 39    
Precipitation  
Precipitation 0.00 in - - ()
Sea Level Pressure  
Sea Level Pressure 30.16 in    
Wind  
Wind Speed 0 mph (SSW)    
Max Wind Speed 6 mph    
Max Gust Speed -    
Visibility 8 miles    
Events      
Averages and records for this station are not official NWS values.
T = Trace of Precipitation, MM = Missing Value Source: NWS Daily Summary

Daily Weather History Graph

Daily Weather History Graph

Search for Another Location

Airport:

Trip Planner

Search our weather history database for the weather conditions in past years. The results will help you decide how hot, cold, wet, or windy it might be!

Date:

Astronomy

Aug. 20, 2013 Rise Set
Actual Time 6:48 AM EDT 8:22 PM EDT
Civil Twilight 6:19 AM EDT 8:50 PM EDT
Nautical Twilight 5:45 AM EDT 9:25 PM EDT
Astronomical Twilight 5:08 AM EDT 10:01 PM EDT
Moon 7:52 PM EDT (8/20) 6:17 AM EDT (8/20)
Length of Visible Light 14h 30m
Length of Day
13h 33m
Full, 100% of the Moon is Illuminated
Aug 20
Full
Aug 20
Full
Aug 28
Last Quarter
Sep 5
New
Sep 12
First Quarter

Hourly Weather History & Observations

Time (EDT) Temp. Heat Index Dew Point Humidity Pressure Visibility Wind Dir Wind Speed Gust Speed Precip Events Conditions
12:17 AM 59.0 °F - 55.4 °F 88% 30.14 in 10.0 mi Calm Calm - N/A   Clear
12:37 AM 59.0 °F - 55.4 °F 88% 30.13 in 7.0 mi Calm Calm - N/A   Clear
12:56 AM 59.0 °F - 55.4 °F 88% 30.14 in 7.0 mi Calm Calm - N/A   Clear
1:17 AM 59.0 °F - 55.4 °F 88% 30.14 in 7.0 mi Calm Calm - N/A   Clear
1:37 AM 59.0 °F - 55.4 °F 88% 30.14 in 7.0 mi Calm Calm - N/A   Clear
1:56 AM 57.2 °F - 55.4 °F 94% 30.14 in 5.0 mi Calm Calm - N/A   Clear
2:17 AM 55.4 °F - 53.6 °F 94% 30.13 in 7.0 mi Calm Calm - N/A   Clear
2:37 AM 55.4 °F - 53.6 °F 94% 30.13 in 5.0 mi Calm Calm - N/A   Clear
2:56 AM 55.4 °F - 53.6 °F 94% 30.14 in 7.0 mi Calm Calm - N/A   Clear
3:17 AM 55.4 °F - 53.6 °F 94% 30.14 in 1.5 mi Calm Calm - N/A   Mist
3:37 AM 55.4 °F - 53.6 °F 94% 30.14 in 5.0 mi Calm Calm - N/A   Clear
3:56 AM 55.4 °F - 53.6 °F 94% 30.14 in 5.0 mi Calm Calm - N/A   Clear
4:17 AM 55.4 °F - 53.6 °F 94% 30.14 in 5.0 mi Calm Calm - N/A   Clear
4:37 AM 55.4 °F - 53.6 °F 94% 30.14 in 5.0 mi Calm Calm - N/A   Clear
4:56 AM 55.4 °F - 53.6 °F 94% 30.14 in 5.0 mi Calm Calm - N/A   Clear
5:17 AM 53.6 °F - 53.6 °F 100% 30.14 in 3.0 mi Calm Calm - N/A   Clear
5:37 AM 55.4 °F - 53.6 °F 94% 30.14 in 3.0 mi Calm Calm - N/A   Clear
5:56 AM 53.6 °F - 53.6 °F 100% 30.15 in 4.0 mi Calm Calm - N/A   Clear
6:17 AM 53.6 °F - 51.8 °F 94% 30.16 in 7.0 mi Calm Calm - N/A   Clear
6:37 AM 55.4 °F - 53.6 °F 94% 30.16 in 5.0 mi East 3.5 mph - N/A   Clear
6:56 AM 53.6 °F - 51.8 °F 94% 30.17 in 4.0 mi Calm Calm - N/A   Clear
7:17 AM 53.6 °F - 53.6 °F 100% 30.17 in 3.0 mi Calm Calm - N/A   Clear
7:37 AM 57.2 °F - 55.4 °F 94% 30.18 in 1.8 mi Calm Calm - N/A   Mist
7:56 AM 59.0 °F - 57.2 °F 94% 30.18 in 2.0 mi Calm Calm - N/A   Mostly Cloudy
8:17 AM 60.8 °F - 59.0 °F 94% 30.18 in 3.0 mi Calm Calm - N/A   Mostly Cloudy
8:37 AM 62.6 °F - 60.8 °F 94% 30.19 in 4.0 mi Calm Calm - N/A   Scattered Clouds
8:56 AM 64.4 °F - 60.8 °F 88% 30.20 in 4.0 mi Calm Calm - N/A   Clear
9:17 AM 66.2 °F - 62.6 °F 88% 30.20 in 5.0 mi Calm Calm - N/A   Clear
9:36 AM 69.8 °F - 64.4 °F 83% 30.20 in 5.0 mi Calm Calm - N/A   Haze
9:57 AM 71.6 °F - 64.4 °F 78% 30.20 in 5.0 mi Calm Calm - N/A   Haze
10:17 AM 71.6 °F - 64.4 °F 78% 30.21 in 7.0 mi Calm Calm - N/A   Clear
10:36 AM 73.4 °F - 64.4 °F 73% 30.21 in 10.0 mi Calm Calm - N/A   Clear
10:57 AM 75.2 °F - 62.6 °F 65% 30.21 in 10.0 mi Calm Calm - N/A   Clear
11:17 AM 77.0 °F - 60.8 °F 57% 30.21 in 10.0 mi Calm Calm - N/A   Clear
11:36 AM 77.0 °F - 60.8 °F 57% 30.21 in 10.0 mi Calm Calm - N/A   Clear
11:57 AM 78.8 °F - 62.6 °F 57% 30.21 in 10.0 mi Calm Calm - N/A   Clear
12:17 PM 78.8 °F - 60.8 °F 54% 30.21 in 10.0 mi SSW 5.8 mph - N/A   Clear
12:36 PM 78.8 °F - 59.0 °F 51% 30.20 in 10.0 mi SSW 3.5 mph - N/A   Clear
12:57 PM 80.6 °F 81.5 °F 60.8 °F 51% 30.20 in 10.0 mi South 3.5 mph - N/A   Clear
1:17 PM 80.6 °F 81.5 °F 60.8 °F 51% 30.20 in 10.0 mi SSW 4.6 mph - N/A   Scattered Clouds
1:36 PM 80.6 °F 81.1 °F 59.0 °F 48% 30.20 in 10.0 mi SSW 4.6 mph - N/A   Scattered Clouds
1:57 PM 80.6 °F 81.1 °F 59.0 °F 48% 30.19 in 10.0 mi SW 3.5 mph - N/A   Clear
2:17 PM 80.6 °F 80.8 °F 57.2 °F 45% 30.18 in 10.0 mi Calm Calm - N/A   Clear
2:36 PM 82.4 °F 82.5 °F 59.0 °F 45% 30.18 in 10.0 mi Calm Calm - N/A   Clear
2:57 PM 82.4 °F 81.7 °F 55.4 °F 39% 30.17 in 10.0 mi Calm Calm - N/A   Clear
3:17 PM 82.4 °F 82.0 °F 57.2 °F 42% 30.17 in 10.0 mi Calm Calm - N/A   Clear
3:36 PM 80.6 °F 81.1 °F 59.0 °F 48% 30.16 in 10.0 mi SW 4.6 mph - N/A   Clear
3:57 PM 82.4 °F 81.7 °F 55.4 °F 39% 30.15 in 10.0 mi Calm Calm - N/A   Clear
4:17 PM 82.4 °F 82.0 °F 57.2 °F 42% 30.15 in 10.0 mi Calm Calm - N/A   Clear
4:36 PM 80.6 °F 80.5 °F 55.4 °F 42% 30.15 in 10.0 mi Calm Calm - N/A   Clear
4:57 PM 82.4 °F 82.0 °F 57.2 °F 42% 30.15 in 10.0 mi Calm Calm - N/A   Clear
5:17 PM 80.6 °F 80.8 °F 57.2 °F 45% 30.14 in 10.0 mi Calm Calm - N/A   Clear
5:36 PM 80.6 °F 80.8 °F 57.2 °F 45% 30.15 in 10.0 mi Calm Calm - N/A   Clear
5:57 PM 80.6 °F 81.1 °F 59.0 °F 48% 30.14 in 10.0 mi Calm Calm - N/A   Clear
6:17 PM 80.6 °F 80.8 °F 57.2 °F 45% 30.14 in 10.0 mi Calm Calm - N/A   Clear
6:36 PM 80.6 °F 81.1 °F 59.0 °F 48% 30.14 in 10.0 mi Calm Calm - N/A   Scattered Clouds
6:57 PM 80.6 °F 81.1 °F 59.0 °F 48% 30.13 in 10.0 mi Calm Calm - N/A   Mostly Cloudy
7:17 PM 78.8 °F - 60.8 °F 54% 30.14 in 10.0 mi Calm Calm - N/A   Overcast
7:36 PM 78.8 °F - 62.6 °F 57% 30.14 in 10.0 mi Calm Calm - N/A   Mostly Cloudy
7:57 PM 75.2 °F - 66.2 °F 73% 30.14 in 10.0 mi Calm Calm - N/A   Scattered Clouds
8:16 PM 71.6 °F - 64.4 °F 78% 30.14 in 10.0 mi Calm Calm - N/A   Clear
8:36 PM 71.6 °F - 60.8 °F 69% 30.14 in 10.0 mi Calm Calm - N/A   Clear
8:57 PM 68.0 °F - 62.6 °F 83% 30.15 in 10.0 mi Calm Calm - N/A   Scattered Clouds
9:17 PM 68.0 °F - 62.6 °F 83% 30.15 in 10.0 mi Calm Calm - N/A   Scattered Clouds
9:36 PM 66.2 °F - 62.6 °F 88% 30.16 in 10.0 mi Calm Calm - N/A   Clear
9:57 PM 66.2 °F - 62.6 °F 88% 30.17 in 10.0 mi South 3.5 mph - N/A   Clear
10:16 PM 68.0 °F - 60.8 °F 78% 30.17 in 10.0 mi Calm Calm - N/A   Scattered Clouds
10:37 PM 64.4 °F - 60.8 °F 88% 30.17 in 10.0 mi Calm Calm - N/A   Scattered Clouds
10:57 PM 64.4 °F - 60.8 °F 88% 30.17 in 10.0 mi Calm Calm - N/A   Clear
11:16 PM 62.6 °F - 60.8 °F 94% 30.17 in 10.0 mi Calm Calm - N/A   Clear
11:37 PM 62.6 °F - 60.8 °F 94% 30.17 in 10.0 mi Calm Calm - N/A   Clear
11:57 PM 62.6 °F - 59.0 °F 88% 30.17 in 10.0 mi Calm Calm - N/A   Clear